User: anonymous
Location: Brno
(49.2000°N, 16.6330°E)
Time: 16:29:33
(UTC+02:00)
Language:

Cosmos 2227 - Orbit

View from above orbital plane
View from above orbital plane
View from above satellite
View from above satellite

Ground track
Ground track

The orbit data is extracted from the following two-line orbital elements,

1 22284U 92093A   14274.83465043  .00000033  00000-0  43133-4 0  9918
2 22284 070.9805 149.3857 0020098 236.4331 194.1907 14.13192754122875
Epoch (UTC): 01 October 2014 20:01:53
Eccentricity: 0.0020098
inclination: 70.9805°
perigee height: 834 km
apogee height: 863 km
right ascension of ascending node: 149.3857°
argument of perigee: 236.4331°
revolutions per day: 14.13192754
mean anomaly at epoch: 194.1907°
orbit number at epoch: 12287

The dashed part of the orbit path shows where the satellite is in the earth's shadow,  

DLR